Location: Astronomy Club of Akron Observatory
(40.9700°N, 81.5606°W)
Time: 04:01:38
(UTC-04:00)

Cosmos 1441 Rocket - Visible Passes

Search period start: 01 May 2016 00:00
Search period end: 11 May 2016 00:00
Orbit: 501 x 545 km, 81.1° (Epoch: 30 April)

Date Brightness Start Highest point End Pass type
(mag) Time Alt. Az. Time Alt. Az. Time Alt. Az.
01 May 6.3 04:44:44 10° ESE 04:46:17 12° E 04:47:51 10° ENE visible
02 May 6.5 04:32:39 10° E 04:33:34 11° E 04:34:30 10° ENE visible
04 May 3.3 05:39:33 10° SSW 05:43:29 66° WNW 05:47:28 10° N visible
05 May 3.2 05:26:45 10° SSW 05:30:42 75° W 05:34:43 10° N visible
06 May 3.2 05:13:57 10° S 05:17:55 85° W 05:21:57 10° N visible
07 May 3.3 05:01:18 11° S 05:05:08 85° E 05:09:10 10° N visible
08 May 3.4 04:49:03 14° S 04:52:22 76° E 04:56:23 10° NNE visible
09 May 3.6 04:36:46 18° S 04:39:35 67° E 04:43:35 10° NNE visible
10 May 3.8 04:24:26 22° S 04:26:49 59° E 04:30:47 10° NNE visible
